Regional Weather Roundup
Issued by NWS

Home | Current Version | Previous Version | Text Only | Print | Product List | Glossary Off
Versions: 1 2 3 4 5 6 7 8 9 10 11 12 13 14 15 16 17 18 19 20 21 22 23 24 25 26 27 28 29 30 31 32 33 34 35 36 37 38 39 40 41 42 43 44 45 46 47 48 49 50

000
ASUS43 KBIS 291901
RWRND

NORTH DAKOTA REGIONAL WEATHER ROUNDUP
NATIONAL WEATHER SERVICE BISMARCK ND
100 PM CST THU JAN 29 2015

NOTE: "FAIR" INDICATES FEW OR NO CLOUDS BELOW 12,000 FEET WITH NO
SIGNIFICANT WEATHER AND/OR OBSTRUCTIONS TO VISIBILITY.


NDZ001>003-009>011-017-292000-
NORTHWEST NORTH DAKOTA

CITY           SKY/WX    TMP DP  RH WIND       PRES   REMARKS
WILLISTON      NOT AVBL
MINOT          CLOUDY    19  11  70 NW16G23   30.49F WCI   4
MINOT AFB      CLOUDY    18  15  88 VRB6      30.49F WCI   9
$$

NDZ018>021-031>035-040>046-292000-
SOUTHWEST NORTH DAKOTA

CITY           SKY/WX    TMP DP  RH WIND       PRES   REMARKS
BISMARCK       NOT AVBL
DICKINSON      SUNNY     33  21  61 NW12      30.42F
GARRISON         N/A     25  18  74 N8        30.47S WCI  16
HETTINGER ARPT SUNNY     36  19  50 NW9       30.44F
$$

NDZ004>008-012>016-024-026-027-054-292000-
NORTHEAST NORTH DAKOTA

CITY           SKY/WX    TMP DP  RH WIND       PRES   REMARKS
GRAND FORKS    FLURRIES  14   4  64 N17       30.52S WCI  -3
GRND FRKS AFB  CLOUDY    14   4  66 N13G20    30.52S WCI   0
DEVILS LAKE    CLOUDY    14   7  73 N13       30.48F WCI   0
$$

NDZ022-023-025-028>030-036>039-047>053-292000-
SOUTHEAST NORTH DAKOTA

CITY           SKY/WX    TMP DP  RH WIND       PRES   REMARKS
FARGO          CLOUDY    18   7  62 N23       30.50S WCI   0
JAMESTOWN      FLURRIES  19  11  70 NW15      30.47F WCI   5
$$




USA.gov is the U.S. government's official web portal to all federal, state and local government web resources and services.